Tracking 28052 objects as of 25-Sep-2023
HD Live streaming from Space Station
objects crossing your sky now

SHIYAN 22B (SY-22B)

Track SHIYAN 22B (SY-22B) now!
10-day predictions


NORAD ID: 55243
Int'l Code: 2023-006B
Perigee: 498.6 km
Apogee: 515.1 km
Inclination: 43.2 °
Period: 94.6 minutes
Semi major axis: 6877 km
RCS: Unknown
Launch date: January 13, 2023
Source: People's Republic of China (PRC)
Launch site: Jiuquan Satellite Launch Center, China (JSC)
Your satellite tracking list
Your tracking list is empty




NASA's NSSDC Master Catalog

Two Line Element Set (TLE):
1 55243U 23006B   23267.93139136  .00013251  00000-0  57771-3 0  9997
2 55243  43.1990 230.5178 0012006 109.4972 250.7179 15.22026976 38747
Source of the keplerian elements: AFSPC